Theta_e
360 361 364 365 364 365 363 358 356 354 352 352 350 342 342 348 351 355 356 355 358 356 356 359 357 354 356 357 357 354 351 352 354 355 356 356 356 357 358 359 359 357 356 357 357 357 356 355 357 358 356 358 359 358 358 357 358 359 359 358 357 356 354
360 361 361 361 362 363 360 357 356 355 353 353 352 348 347 349 350 353 355 354 356 357 356 359 359 357 356 356 357 355 352 353 354 355 356 357 356 356 358 358 360 359 357 357 357 357 356 356 356 356 356 358 359 358 359 359 359 360 360 359 358 356 355
359 362 363 362 362 364 361 357 355 355 355 354 354 352 350 352 351 352 354 354 355 356 356 358 360 360 358 357 356 356 354 354 355 355 355 357 357 357 359 358 358 359 359 358 358 357 357 357 356 355 355 357 359 359 360 360 360 361 362 361 359 358 357
356 359 362 362 362 362 361 357 355 356 355 355 355 353 351 351 352 354 355 354 355 357 356 356 359 361 361 359 358 357 356 355 356 356 354 355 356 357 358 358 357 358 359 358 358 358 358 357 356 355 355 356 359 360 361 361 360 360 361 361 359 359 359
355 357 358 359 359 359 359 358 358 357 355 354 352 352 353 352 352 354 358 357 355 356 355 355 357 359 360 360 359 358 357 356 357 357 356 355 356 355 356 356 355 356 356 356 357 357 357 356 357 356 356 356 358 359 361 360 359 358 359 361 359 359 360
355 357 356 355 355 355 354 353 356 357 355 353 351 351 352 352 351 352 358 360 358 358 357 356 356 358 359 360 359 358 357 357 357 357 357 356 356 355 355 354 354 354 354 355 355 355 355 356 357 357 358 358 357 358 359 358 359 359 359 362 361 359 360
349 352 353 353 352 350 349 349 352 356 356 355 354 354 353 353 353 351 354 360 361 361 360 359 359 359 360 360 358 356 356 355 356 356 356 357 356 355 355 353 353 353 353 353 354 354 355 356 356 356 357 358 358 358 358 357 359 361 360 361 362 360 361
345 347 349 350 349 347 347 347 349 352 356 356 356 356 355 354 354 354 353 356 360 362 363 362 361 360 361 361 359 357 356 356 355 355 355 356 355 355 355 354 353 353 352 353 352 352 353 355 356 355 356 357 357 358 358 358 358 358 358 360 360 359 360
344 344 344 345 345 345 345 345 345 347 350 352 354 355 355 354 354 353 351 352 355 357 358 360 361 360 359 360 360 359 359 358 357 356 356 355 355 354 354 354 353 352 352 352 351 351 352 353 354 355 355 356 357 357 357 358 358 356 357 359 359 358 359
342 341 341 341 341 343 342 342 343 344 345 347 348 350 352 353 351 350 350 349 349 350 351 354 357 356 357 357 359 360 359 359 359 359 358 356 354 353 352 352 353 352 351 351 351 351 351 352 352 354 355 356 357 357 355 356 357 356 356 357 358 357 357
340 340 341 340 340 340 340 340 341 342 343 344 345 346 348 349 350 350 350 351 350 350 350 351 350 352 354 354 356 357 357 357 359 359 359 358 356 353 352 350 350 351 351 351 350 350 350 351 351 352 354 355 356 356 355 354 355 355 355 355 356 357 357
338 339 340 339 339 339 338 339 340 341 342 343 344 345 345 346 348 348 349 351 352 352 352 353 351 351 353 353 354 355 356 356 357 357 357 357 356 354 352 351 350 350 350 350 349 350 350 350 350 351 353 353 354 355 354 354 354 355 355 355 355 357 357
337 337 338 338 339 338 338 338 339 340 341 342 344 344 343 344 345 345 347 349 351 352 353 355 353 351 351 353 355 355 355 356 356 356 355 354 354 353 351 352 351 349 349 350 349 349 349 349 349 350 351 353 353 353 353 353 353 354 354 355 356 356 357
337 336 337 337 337 338 338 337 337 338 339 342 343 343 342 342 342 343 344 345 347 349 351 352 353 352 351 353 354 354 353 354 354 355 354 354 353 353 351 351 352 351 349 349 350 350 348 348 349 349 350 351 352 352 352 352 353 353 353 354 356 357 357
336 335 335 336 336 337 337 337 337 337 337 339 341 341 342 342 342 342 343 344 346 348 350 351 353 353 352 352 353 353 352 352 352 352 353 354 354 353 353 351 351 352 350 348 349 350 348 347 347 348 349 350 351 352 351 351 352 352 352 353 353 356 357
334 334 333 333 334 334 335 335 337 337 337 337 339 340 341 342 343 343 343 344 345 347 348 349 351 353 353 353 353 354 354 352 351 351 351 353 353 353 353 352 352 352 350 348 347 347 348 348 347 348 348 349 350 351 352 352 351 352 352 353 353 353 355
333 333 332 332 332 332 333 334 335 335 335 335 336 337 339 341 342 342 343 344 344 344 344 344 346 347 348 348 348 350 352 352 351 351 351 351 352 353 353 352 353 352 351 349 347 345 345 346 347 348 349 349 349 349 351 351 351 351 352 353 354 353 354
334 333 332 331 332 332 332 331 332 334 333 333 333 334 335 337 338 341 343 343 343 343 342 341 343 343 343 343 343 344 348 350 350 351 351 351 352 353 353 353 353 353 350 349 348 347 345 344 344 346 348 350 350 349 350 350 350 350 351 352 354 354 354
331 332 331 330 330 331 330 330 330 332 332 331 332 332 332 333 334 337 340 340 338 339 339 339 341 342 342 342 341 342 346 348 348 348 349 351 352 352 353 353 354 354 353 352 351 351 348 346 344 343 346 350 351 350 349 349 349 349 349 350 352 353 353
329 331 331 329 329 329 327 327 328 330 330 330 331 331 331 332 331 332 336 337 335 335 337 337 338 339 340 341 341 341 341 342 345 345 345 346 349 350 351 353 353 353 353 354 353 352 351 349 347 345 346 350 353 354 353 351 350 350 349 349 350 350 350
329 330 330 330 330 328 325 325 326 328 329 327 328 330 331 332 331 330 332 334 334 334 334 335 336 336 337 339 340 342 340 337 340 343 343 343 344 345 347 349 352 352 352 353 353 353 353 352 350 349 348 349 352 354 355 354 353 352 350 349 350 350 349
326 327 328 328 328 326 324 324 326 327 326 323 325 329 331 332 332 331 331 333 334 333 333 333 333 334 335 336 337 340 342 340 339 340 340 340 343 345 347 348 349 350 351 352 353 354 354 353 352 351 351 351 351 353 354 355 355 354 353 351 350 349 349
324 325 325 325 324 324 324 324 325 325 324 323 325 329 330 331 331 331 332 332 333 333 332 332 333 332 332 334 334 336 341 342 341 340 338 336 338 343 346 347 349 349 349 351 352 354 355 355 355 354 353 353 353 353 353 354 354 355 354 353 353 351 349
321 322 323 322 322 323 323 323 324 324 324 324 326 327 326 327 328 330 331 332 333 333 332 332 333 331 331 332 333 334 336 338 339 340 340 338 335 337 339 339 342 343 341 342 346 350 353 355 355 355 356 356 356 355 354 354 354 354 354 354 354 354 353
321 321 321 320 321 323 323 323 323 324 324 325 326 326 326 326 327 327 329 331 333 333 333 333 333 332 331 332 333 332 332 334 335 337 341 342 340 339 339 336 336 336 335 334 338 343 348 350 352 353 355 355 356 357 356 355 354 353 353 354 354 354 354
321 321 321 321 322 322 322 323 323 323 324 325 326 326 326 327 328 328 328 330 332 333 333 333 333 332 331 332 332 332 331 333 333 333 337 341 342 343 342 340 338 338 338 338 338 340 343 345 346 348 350 352 355 356 357 357 356 354 353 353 353 353 353
321 321 321 322 322 321 321 322 322 322 322 323 324 325 325 327 328 328 328 329 330 331 332 332 332 332 332 332 331 330 330 331 331 331 333 336 340 343 343 341 340 342 343 343 343 342 343 343 343 343 344 346 350 353 353 355 357 358 357 357 356 354 353
321 321 321 321 321 321 321 321 320 321 322 322 323 323 324 325 326 326 327 328 328 327 329 330 331 331 332 331 329 328 329 330 330 329 330 333 336 338 337 337 339 342 344 345 345 345 345 345 346 346 346 347 349 351 352 354 356 357 357 358 358 358 357
320 320 320 320 320 320 320 319 319 320 321 321 321 321 322 323 324 324 325 327 326 326 327 327 328 330 331 330 329 329 329 328 328 329 331 332 332 332 333 335 338 341 343 345 346 346 347 347 347 346 345 345 346 347 349 351 353 354 355 355 357 358 358
319 319 319 319 319 319 318 318 319 319 320 320 320 320 321 321 322 323 324 325 325 326 327 326 326 329 331 330 329 329 327 326 327 330 331 331 330 331 332 333 334 335 338 344 347 348 346 344 342 339 338 338 339 339 338 339 341 347 352 353 354 356 358
318 318 319 318 318 318 318 318 318 318 319 320 319 320 321 321 321 322 323 323 323 325 325 326 326 327 329 329 329 329 327 326 328 330 330 329 330 330 330 330 331 332 336 341 343 342 341 340 339 338 337 337 336 335 334 331 333 340 347 350 351 352 354
317 317 317 317 317 317 317 317 318 318 319 319 319 319 320 320 320 321 322 322 323 323 324 325 325 326 327 328 328 328 326 326 328 330 330 329 329 329 329 330 332 333 334 335 334 333 335 338 338 337 337 337 336 335 335 334 334 337 340 344 348 351 352
317 316 316 316 316 317 317 317 317 318 318 319 319 319 319 320 320 320 320 321 322 323 323 324 325 326 326 326 327 327 326 325 327 329 329 328 329 329 329 330 331 332 333 332 331 330 332 334 334 334 334 335 335 335 335 334 334 335 337 339 344 347 347
316 315 315 316 316 316 317 318 318 318 318 318 318 319 319 320 321 321 321 321 321 322 323 323 324 325 325 325 326 327 325 325 327 328 327 327 328 327 327 329 330 330 330 330 330 331 331 331 331 331 331 332 334 334 334 333 333 335 335 335 337 339 340
315 315 315 315 316 316 316 317 317 317 318 318 318 318 318 318 320 322 323 323 322 322 322 323 324 325 325 325 326 326 325 326 327 326 325 325 324 323 325 327 328 328 328 329 329 330 330 330 330 330 329 330 331 332 333 333 333 334 334 333 334 335 336
314 315 315 315 315 316 316 317 317 317 317 317 317 317 317 318 320 322 323 324 323 323 323 324 324 324 325 326 327 326 325 325 325 324 324 324 323 322 323 325 326 327 328 328 328 328 329 330 330 330 329 329 329 330 331 333 334 334 333 333 334 335 337
314 314 314 314 315 316 317 317 316 316 316 317 317 316 316 318 320 321 321 322 322 323 324 325 325 325 326 327 327 326 325 324 324 324 324 324 323 324 324 325 325 326 326 326 326 326 327 327 327 329 330 329 330 331 332 334 335 335 334 333 334 335 337
313 313 314 314 316 316 316 316 316 316 316 316 316 315 315 317 318 319 319 320 320 321 323 324 325 325 326 326 325 325 324 324 323 323 323 324 324 324 324 324 325 325 324 323 322 322 323 323 324 328 330 330 331 332 333 333 334 334 334 333 333 334 335
Wind_Speed
7 6 6 6 6 4 3 6 7 11 17 16 19 27 27 29 33 31 31 32 29 28 27 24 26 27 26 24 22 22 21 19 17 16 16 17 19 18 17 17 16 17 17 16 16 15 14 14 14 14 14 14 13 12 12 12 11 12 13 12 12 13 11
5 4 5 5 5 5 6 7 6 8 13 13 15 22 21 24 32 33 32 33 30 29 28 26 26 27 27 26 23 22 22 20 19 17 15 16 18 19 18 17 16 15 15 16 16 15 14 14 14 14 15 15 14 13 13 13 12 12 13 12 13 14 12
4 3 2 3 5 4 7 9 8 7 10 10 11 16 16 17 27 32 33 33 32 30 29 26 26 26 26 26 24 23 22 21 20 20 18 16 17 18 18 17 16 15 15 15 15 15 15 16 15 14 14 15 15 14 13 13 13 13 12 12 13 13 14
4 4 4 3 5 5 5 7 8 8 9 9 8 11 13 12 18 26 31 33 32 30 30 28 26 26 26 25 25 24 23 22 21 21 20 19 17 17 17 17 16 16 15 14 14 15 15 15 16 16 14 14 14 14 14 13 13 13 12 12 12 12 12
4 4 4 4 5 4 5 5 5 7 8 9 9 9 11 10 12 18 25 30 31 31 31 30 27 26 25 25 25 24 24 24 22 21 21 20 18 17 17 17 17 16 16 14 14 14 14 14 15 16 16 14 13 14 14 13 12 13 12 12 12 11 10
3 3 3 3 5 5 6 8 7 4 7 9 11 12 11 10 11 14 19 26 29 29 29 29 27 25 25 26 25 24 24 24 23 22 21 20 19 18 18 18 17 17 17 16 15 15 15 16 16 17 16 14 14 15 14 13 12 12 12 12 12 12 10
5 3 1 3 6 7 7 11 12 5 4 5 7 10 10 10 11 14 17 23 27 26 26 28 27 26 25 26 26 24 24 25 24 23 22 20 20 19 19 18 18 17 17 17 17 16 15 17 18 18 18 16 16 16 14 14 13 13 13 13 13 13 11
6 5 5 5 7 7 8 12 15 13 9 5 4 6 10 12 10 10 12 17 22 24 25 28 29 27 24 24 26 25 24 24 24 24 23 22 20 19 19 19 18 17 16 17 17 17 16 16 18 18 18 18 17 17 16 16 15 13 14 14 14 14 13
7 8 9 9 8 9 10 13 15 17 18 13 9 7 2 6 4 2 3 0 4 8 13 20 26 27 23 21 24 24 22 23 24 24 24 23 22 20 18 19 19 18 18 17 18 19 18 18 18 17 17 17 17 17 17 18 17 15 14 15 15 14 14
8 9 9 10 9 9 11 14 15 17 19 18 18 18 15 13 13 13 10 4 5 6 1 8 18 24 24 23 22 21 18 19 21 24 24 23 23 22 19 18 18 19 20 19 18 19 20 20 20 19 18 18 17 18 18 18 19 18 17 16 15 15 15
8 8 8 9 9 9 11 12 13 15 17 18 19 20 20 21 21 19 15 8 4 5 5 1 5 12 18 20 20 18 15 13 14 17 21 21 20 20 20 19 19 19 20 21 20 19 19 21 22 21 20 20 19 19 19 18 19 19 19 18 16 15 15
7 7 7 8 8 8 9 10 11 13 15 17 19 19 20 22 24 22 18 13 10 11 11 7 2 1 3 7 11 12 11 11 10 11 14 15 14 13 12 12 16 19 21 23 22 20 20 21 23 23 22 22 21 21 20 19 18 19 19 19 18 17 16
8 8 7 8 7 7 8 9 11 13 14 15 17 19 20 22 24 24 21 19 17 14 14 13 11 8 6 4 4 5 6 8 8 7 8 10 9 9 7 4 5 9 15 22 26 24 22 21 23 24 23 23 23 23 22 21 20 19 20 19 18 19 19
11 11 9 8 7 7 7 8 9 12 14 14 16 19 20 21 21 22 21 20 20 18 15 15 19 19 15 12 9 5 2 3 3 3 6 8 8 9 10 7 4 4 6 12 22 24 24 24 23 25 26 25 24 25 24 23 23 22 22 22 20 20 20
13 12 11 9 8 7 7 7 8 12 14 15 17 19 19 19 19 19 19 17 18 19 16 15 19 23 22 19 16 13 9 4 2 1 3 7 9 11 12 11 9 5 5 5 12 17 19 22 22 24 28 28 25 26 26 26 26 25 25 25 25 24 23
12 12 12 11 10 9 8 8 9 12 14 15 16 18 17 16 17 18 18 16 17 19 19 17 19 23 24 22 19 16 15 12 8 5 2 2 5 8 11 13 14 12 7 5 8 12 13 16 17 17 24 30 29 27 28 28 27 27 26 27 27 27 26
11 11 11 10 10 9 9 10 10 12 15 15 15 15 15 13 14 16 19 20 21 21 20 19 21 23 25 25 21 17 16 17 15 12 8 5 2 1 4 10 14 17 15 10 10 13 13 14 16 15 17 26 32 31 29 30 30 28 28 28 28 29 29
11 10 10 9 9 8 8 9 11 11 14 16 16 16 16 14 14 15 19 22 23 22 21 21 21 23 25 25 21 17 15 16 17 17 16 12 8 5 3 2 7 13 18 17 15 16 16 16 18 19 16 18 27 34 33 32 31 30 29 29 28 29 30
10 9 9 9 8 7 7 8 11 13 15 17 17 18 18 18 19 19 21 25 25 23 22 22 21 22 24 24 21 17 14 14 15 16 16 15 13 10 7 5 4 6 9 12 13 15 18 19 21 23 21 16 17 25 30 33 33 31 30 29 29 30 31
10 9 9 9 8 7 8 10 12 14 17 18 17 18 19 20 22 21 21 25 26 25 23 22 22 22 22 22 20 17 14 13 14 14 12 11 10 10 10 8 6 6 6 6 8 12 17 20 21 23 24 20 14 13 17 23 28 31 32 31 30 30 32
10 10 9 8 7 7 8 10 12 13 17 18 16 17 19 20 22 22 21 22 24 24 23 22 23 22 20 19 16 14 13 14 14 13 10 8 6 6 7 9 9 8 7 6 6 9 12 15 18 21 22 21 18 15 13 14 18 24 29 33 33 33 33
9 9 9 9 9 9 9 11 12 14 18 18 17 17 18 20 21 22 22 21 22 23 22 23 23 20 18 16 15 13 12 14 15 15 12 9 7 7 7 7 9 9 8 7 6 7 8 10 13 17 20 20 19 19 19 17 16 17 20 25 29 31 33
11 11 12 14 14 12 11 11 13 17 19 19 21 21 20 20 20 20 20 20 20 20 20 21 21 20 18 16 15 15 13 13 14 14 13 13 11 10 10 9 9 9 8 8 8 7 7 7 9 12 15 17 18 19 21 22 21 19 18 19 21 23 26
15 16 17 17 14 12 11 13 14 18 19 20 22 22 21 20 19 18 19 18 17 18 18 19 18 18 18 16 15 16 14 13 14 12 11 13 13 12 11 11 10 9 9 11 12 10 9 8 9 9 10 12 14 16 19 22 23 23 22 22 21 21 22
15 17 18 16 13 12 14 15 16 19 21 21 21 21 20 18 17 17 17 16 15 16 16 17 16 15 16 16 15 16 14 13 14 13 8 8 11 13 13 14 14 13 12 14 15 13 11 11 11 11 10 10 12 14 17 20 22 23 24 24 24 23 23
14 16 16 16 15 15 17 18 19 20 21 21 20 19 17 16 16 16 15 15 14 14 14 14 13 13 14 14 14 14 13 12 14 14 10 6 7 9 10 12 13 13 13 13 14 13 12 12 12 13 14 13 13 14 15 17 20 22 23 24 25 25 25
16 16 15 16 17 17 17 18 19 19 19 19 18 17 16 15 15 15 15 15 15 14 13 11 10 10 11 12 13 13 13 13 14 13 11 9 8 7 7 9 9 8 8 9 10 11 12 12 13 14 15 15 15 16 17 18 20 20 20 20 21 22 24
17 16 16 17 18 17 16 17 17 16 16 16 16 17 16 16 16 15 15 15 15 15 13 11 9 8 8 10 11 12 13 14 13 13 11 11 10 9 8 9 9 7 7 8 9 11 12 13 14 15 16 16 16 17 18 19 20 19 17 16 17 19 21
16 16 15 17 18 16 15 16 15 14 14 14 14 15 15 15 15 14 14 13 13 13 12 11 12 9 5 7 10 10 11 12 12 13 12 11 11 12 12 12 11 9 9 9 9 11 12 12 13 15 16 17 17 17 17 17 18 18 18 17 16 17 19
17 16 15 16 17 14 13 15 14 12 13 13 13 13 13 13 13 13 13 13 13 13 12 13 15 12 6 5 6 8 10 11 11 13 12 10 11 13 14 15 14 13 13 11 9 9 11 12 13 14 15 17 18 18 18 17 16 15 16 17 18 19 20
15 14 14 15 14 11 10 11 10 11 12 13 14 15 15 14 14 13 13 13 14 14 13 14 15 14 11 7 4 6 9 11 11 13 12 11 12 14 15 17 17 16 15 12 10 12 14 15 16 16 16 16 16 17 19 18 17 16 15 15 17 20 21
13 13 13 13 11 8 7 6 7 10 11 12 13 14 15 15 15 15 14 14 13 12 13 14 13 13 13 11 6 6 9 9 11 12 12 11 13 15 15 17 17 17 16 15 16 17 17 16 16 17 18 17 16 16 18 19 18 15 14 15 17 17 19
13 13 12 9 7 5 3 3 6 8 9 10 12 14 14 15 15 15 15 14 12 11 11 11 12 12 13 13 10 6 7 8 10 11 11 11 13 15 17 18 18 17 18 19 21 21 18 17 18 19 20 20 20 20 20 19 19 16 12 14 17 18 18
13 12 8 5 3 3 4 6 8 9 9 10 13 14 15 15 15 15 14 13 13 12 10 10 11 12 12 14 12 6 5 7 7 9 11 12 13 16 18 18 19 19 19 20 20 21 21 20 20 20 21 22 23 23 23 23 20 17 13 13 17 20 22
11 8 5 3 3 4 5 7 9 10 10 12 13 14 15 16 16 17 17 15 13 12 10 10 11 12 13 14 12 7 4 4 5 7 9 11 13 15 16 17 18 19 19 19 18 19 21 22 20 20 23 25 24 22 24 25 21 17 16 16 16 17 20
8 6 6 6 5 4 5 7 10 11 12 12 13 14 15 16 16 16 18 18 16 13 11 10 10 11 13 13 9 5 6 7 6 7 8 9 11 14 16 17 17 17 17 18 18 18 19 19 19 21 24 25 24 21 22 24 21 17 16 17 16 17 19
6 6 6 4 2 4 8 10 10 11 11 12 12 12 14 16 16 16 18 19 19 17 15 13 12 11 11 10 9 9 8 7 7 8 8 9 10 13 16 18 19 17 16 17 18 19 19 19 19 20 20 22 23 21 20 21 20 17 17 19 19 19 19
8 6 4 2 4 8 11 10 10 10 10 11 11 11 13 15 16 17 18 18 19 19 17 15 13 12 10 9 9 9 9 8 8 9 11 11 11 12 15 18 20 19 19 20 21 22 22 21 19 17 18 19 19 19 20 20 19 17 18 21 21 20 20
Wind_Direction
122 111 114 124 147 148 125 156 164 162 163 153 157 172 171 166 169 170 174 179 181 184 188 189 190 191 191 192 194 194 193 193 194 193 189 189 190 189 190 193 196 199 198 200 206 207 208 203 197 202 196 188 198 205 199 198 199 200 199 201 202 200 202
88 100 128 129 139 146 134 152 173 168 167 161 160 172 172 166 170 172 175 180 183 185 188 191 191 193 195 195 195 196 195 194 197 198 194 192 193 193 192 195 201 205 205 206 210 210 212 210 205 208 202 195 198 201 203 201 198 200 203 203 198 195 197
65 47 55 100 118 131 130 148 171 167 164 167 170 180 176 163 170 176 177 180 184 185 188 191 193 193 196 198 198 199 198 197 199 200 199 195 192 193 195 198 202 206 207 209 211 212 214 213 211 215 209 200 201 202 205 207 201 199 204 207 202 198 201
43 6 354 52 84 74 87 129 149 148 166 172 167 187 188 170 171 177 180 182 182 185 188 191 194 194 196 199 200 200 199 200 202 202 203 201 197 198 199 199 201 205 207 209 212 210 209 210 212 216 211 204 205 207 208 210 206 201 203 210 208 206 208
32 345 346 50 79 69 58 61 88 120 158 173 172 197 197 181 178 176 180 185 184 187 191 192 194 195 197 199 201 203 202 202 202 203 205 205 203 204 205 203 203 205 207 207 209 208 205 206 210 211 207 204 207 212 214 214 212 207 203 210 212 210 214
53 332 324 46 65 62 53 28 26 104 149 160 175 200 200 193 199 188 181 186 187 189 190 191 193 195 199 201 201 204 205 204 203 203 204 205 206 207 208 210 209 209 209 208 207 210 212 209 206 206 205 204 208 215 219 215 213 213 208 212 216 211 217
49 23 4 71 67 54 41 24 21 52 131 147 166 187 191 194 207 204 192 187 187 188 188 189 192 194 198 202 202 203 206 206 206 205 204 205 208 211 210 212 213 212 212 213 209 209 214 213 206 205 207 208 211 216 221 216 214 218 214 214 217 213 218
46 44 54 67 73 63 44 31 28 38 57 88 140 170 192 201 209 215 204 189 186 189 189 190 192 194 195 198 200 202 206 208 207 208 208 206 209 213 212 210 213 214 213 215 214 209 212 214 209 207 210 212 214 216 220 222 222 223 218 216 219 215 216
53 51 52 53 60 59 50 39 33 37 44 53 57 51 116 180 161 59 25 268 199 186 189 196 198 198 198 197 196 198 203 207 206 208 209 208 210 214 215 213 212 214 214 217 217 211 211 214 211 212 215 215 216 218 221 225 226 224 220 219 224 222 217
56 53 52 52 52 53 51 43 37 38 38 39 41 39 46 67 77 72 68 41 349 17 48 214 207 200 197 195 194 195 198 201 203 206 208 209 211 212 216 218 215 216 217 219 221 215 213 215 215 215 218 218 220 222 225 228 227 224 222 223 229 231 223
66 61 55 54 50 49 52 45 39 41 41 38 39 40 45 52 59 67 79 102 112 79 71 316 238 204 193 191 192 197 198 195 196 201 202 205 210 211 214 219 220 220 219 218 223 222 217 216 217 216 216 218 222 225 227 231 229 224 223 225 230 234 231
83 75 66 61 58 54 55 53 45 44 46 45 43 42 43 45 51 55 55 60 78 96 99 88 51 226 179 176 182 191 199 202 203 198 193 196 204 210 216 222 225 227 224 219 220 224 224 220 217 217 218 219 221 225 228 231 231 227 224 225 227 231 235
82 73 64 59 59 59 60 60 55 50 50 53 53 51 46 45 50 53 48 42 42 54 68 76 84 85 69 80 138 164 192 214 225 218 200 194 197 207 220 237 243 246 237 222 216 218 224 225 220 218 220 221 221 223 227 228 230 231 228 226 226 230 234
101 87 73 61 55 55 63 69 67 62 57 59 64 62 57 54 57 58 56 50 43 38 42 56 71 77 70 60 66 79 123 214 253 251 222 212 207 210 218 227 254 312 294 230 214 213 218 223 223 220 219 222 223 224 225 227 228 231 233 231 230 231 233
105 98 89 78 62 50 55 72 83 77 67 63 68 69 66 64 65 66 65 62 55 52 50 54 66 73 70 61 54 50 48 52 48 357 219 214 216 217 217 220 225 255 314 265 216 212 218 223 226 224 219 219 223 224 224 225 227 230 233 234 233 232 234
92 87 83 79 72 59 45 51 75 82 72 63 64 67 69 74 80 81 81 79 70 61 58 58 62 70 74 69 60 55 52 52 57 64 94 197 223 227 226 226 222 221 243 266 230 221 225 231 236 237 225 218 218 222 222 222 226 231 233 235 235 233 232
88 81 74 68 65 60 45 37 50 73 75 66 59 58 62 74 89 94 94 89 80 71 65 63 62 66 73 73 66 61 60 58 58 61 64 63 42 335 241 240 234 225 224 232 236 231 230 236 247 256 243 223 217 218 219 221 225 229 232 235 236 235 233
86 86 79 67 55 49 44 34 31 50 70 68 58 50 46 48 59 78 88 84 79 76 70 66 65 64 67 72 69 62 60 61 63 65 65 63 58 49 35 311 264 244 233 227 228 232 230 232 241 250 256 241 224 218 218 220 224 227 230 233 235 235 235
85 87 83 76 63 47 38 28 19 34 60 65 57 49 43 39 41 58 80 81 74 72 68 63 64 64 63 66 68 65 59 58 64 69 69 69 66 60 47 19 336 293 263 245 239 237 232 228 233 237 243 250 237 223 221 222 224 227 228 230 234 235 235
93 92 87 80 73 54 39 27 21 36 56 60 56 52 47 41 39 48 70 79 72 66 63 59 59 61 59 58 62 64 59 55 59 62 64 67 65 60 54 37 8 346 330 298 265 249 237 230 231 231 233 241 247 236 226 224 225 228 229 229 233 235 235
100 99 96 90 79 57 40 24 19 42 58 54 49 54 53 48 43 41 52 69 70 62 58 56 55 55 55 55 53 54 55 56 59 58 52 48 42 37 44 42 25 6 351 333 292 269 256 241 233 231 233 241 248 248 242 231 225 226 228 231 233 235 236
100 100 105 107 95 68 41 22 26 56 67 53 40 47 57 57 51 43 44 56 64 59 52 51 50 47 48 48 42 41 49 53 57 57 50 42 43 43 41 38 33 22 1 342 321 294 277 257 241 235 235 240 245 248 249 248 242 234 229 229 232 236 238
97 99 101 100 95 78 50 32 43 63 67 52 43 49 57 57 53 48 44 49 58 57 51 49 45 38 37 37 33 34 41 42 42 46 44 37 38 46 46 38 33 29 13 352 335 319 303 284 265 254 249 248 250 252 252 250 251 254 251 243 238 239 242
86 88 87 83 79 76 61 46 52 63 60 50 48 51 51 50 49 46 42 44 53 57 53 49 43 35 31 30 26 28 32 32 28 27 32 33 30 29 29 24 17 11 4 352 337 325 316 303 288 277 271 268 265 264 263 257 252 254 258 259 255 251 249
69 74 77 72 64 66 64 53 52 58 54 48 48 47 43 43 44 41 36 37 47 56 56 50 43 33 28 27 25 24 24 25 23 18 23 36 31 24 18 14 7 355 342 336 330 321 317 313 306 296 287 280 274 271 271 268 262 258 258 259 261 262 261
68 63 65 62 56 57 57 51 48 50 47 45 46 43 39 39 40 38 33 31 39 49 53 51 42 33 30 26 21 20 21 19 16 14 16 19 16 20 22 17 11 1 348 339 328 319 316 318 317 310 300 293 286 280 278 276 272 268 265 263 263 265 269
80 68 61 62 59 53 49 47 45 42 40 41 41 37 35 37 38 36 30 28 32 32 32 39 38 34 36 30 18 13 16 14 9 7 7 4 357 3 15 10 1 355 352 345 330 323 324 325 324 319 311 305 299 292 287 283 280 277 276 276 274 272 273
76 65 57 59 57 47 41 41 40 36 36 36 34 31 30 31 34 31 24 26 27 15 10 19 21 22 37 33 17 11 8 5 1 357 355 355 354 354 352 346 336 323 323 329 328 329 331 332 331 328 324 322 317 308 299 290 285 283 283 284 286 286 283
73 64 55 53 51 42 34 32 29 29 30 28 26 27 25 25 27 22 16 21 19 4 360 3 357 354 17 28 20 15 5 356 350 349 349 347 345 345 345 345 344 339 331 327 329 334 339 345 346 343 340 338 334 328 322 313 300 287 275 268 265 267 267
72 67 61 57 53 42 31 25 20 20 23 22 23 24 22 22 20 11 8 11 5 358 357 355 352 350 349 5 24 22 3 350 345 350 354 347 338 344 352 356 356 354 347 340 340 348 350 350 351 349 347 345 340 335 332 332 328 314 291 275 264 260 261
71 69 68 65 57 44 32 23 15 16 20 21 21 19 17 18 14 7 5 0 356 358 357 351 351 353 349 351 19 26 5 349 344 350 355 350 348 352 357 356 353 354 358 3 7 2 351 343 341 341 339 339 338 335 332 332 336 340 332 316 296 281 278
79 72 68 65 57 46 35 21 17 25 26 22 19 16 15 13 7 2 358 353 350 353 353 348 347 347 345 343 346 14 14 353 341 348 353 355 360 1 357 354 352 354 357 360 358 353 345 338 335 332 329 328 327 329 333 334 336 338 334 330 322 305 291
85 77 69 61 53 37 9 10 34 36 28 22 22 20 15 10 3 356 354 353 350 345 342 344 342 337 336 334 331 356 15 347 336 353 3 0 360 357 351 349 351 350 347 344 342 340 336 332 329 325 323 322 321 322 325 331 339 343 328 311 314 315 310
92 85 76 69 61 25 8 31 46 41 32 31 29 21 14 8 2 357 350 344 341 339 337 339 337 331 328 326 319 323 345 337 343 7 11 2 354 347 342 342 341 340 339 337 334 330 325 324 324 323 321 318 316 318 319 322 332 346 344 321 312 313 311
95 93 84 66 58 42 35 43 45 40 39 37 29 20 13 5 359 360 358 351 341 334 328 330 335 335 333 327 317 310 345 16 26 15 2 354 345 335 331 331 331 329 328 329 330 328 324 319 315 317 321 318 313 311 311 312 319 334 342 338 328 319 314
96 97 83 56 34 38 55 57 51 45 41 34 25 18 11 3 360 7 12 11 7 0 351 349 349 345 343 344 349 21 50 48 35 10 356 350 342 332 325 324 327 327 325 326 328 327 325 320 313 314 317 315 312 310 305 304 308 319 330 332 329 323 320
108 92 81 62 23 52 65 63 57 48 38 31 25 18 10 6 8 17 20 18 18 20 20 18 14 6 1 7 22 36 38 30 16 1 346 338 336 331 326 326 330 328 323 324 324 322 320 319 314 311 311 309 310 313 311 305 304 310 319 324 325 324 322
105 85 79 86 72 69 65 59 57 51 39 32 27 18 14 15 15 18 21 21 20 22 23 23 22 20 15 11 11 16 19 14 4 353 344 341 342 336 329 329 331 327 321 318 318 317 319 321 318 312 310 309 308 313 316 313 308 307 311 315 318 319 320